GFSSW_250_rhum_000.txt.gz
RH
23 26 22 19 20 21 22 22 23 23 22 23 24 24 26 21 19 18 17 15 14 18 17 18 20 22 12 14 29 45 47 49 45 44 31 23 25 20 17 14 13 45 74 81 78
24 26 26 26 24 24 23 20 20 22 23 24 25 25 25 26 21 18 17 16 15 14 18 18 12 12 27 8 23 77 63 58 38 39 34 34 40 39 35 37 37 40 38 8 7
21 22 24 22 26 28 26 28 25 21 21 22 24 24 26 24 25 22 17 17 17 15 15 19 17 13 14 15 6 29 48 23 23 28 39 26 32 53 61 52 23 11 7 6 7
18 17 19 22 22 27 26 26 29 29 27 28 28 30 28 27 26 25 20 18 18 17 15 15 18 18 12 13 10 11 24 15 15 56 72 38 26 55 50 33 32 43 39 16 11
21 18 16 16 17 19 22 28 27 28 30 30 30 31 31 34 32 26 24 20 19 19 18 16 14 16 18 14 9 11 9 10 13 17 43 79 57 31 70 66 57 60 52 45 14
27 25 27 22 18 17 18 21 23 23 25 29 30 29 30 30 31 28 27 24 20 20 20 19 16 14 16 20 15 7 9 8 10 14 14 19 24 23 16 11 9 5 6 9 8
47 37 35 29 23 19 17 18 18 20 22 23 25 27 26 29 28 29 28 30 23 20 20 21 18 17 15 19 23 12 6 6 7 7 8 9 10 9 8 9 7 8 9 9 8
48 54 48 38 33 29 22 22 17 18 17 18 19 22 23 29 25 27 25 28 30 25 20 21 20 18 17 17 21 24 10 8 7 8 11 11 9 8 9 8 8 7 8 8 9
29 31 43 53 43 35 36 29 26 24 22 22 21 18 16 24 24 28 26 25 28 29 27 22 25 21 18 17 16 22 21 12 12 11 11 11 9 9 8 8 8 9 10 11 11
14 17 20 23 28 35 38 40 35 29 27 24 26 32 20 16 17 24 27 26 25 25 29 27 27 30 22 18 18 17 21 21 18 13 12 11 10 9 9 10 11 14 15 16 18
9 10 12 12 14 15 14 23 35 35 31 27 23 28 34 23 18 17 20 23 28 30 35 26 28 29 31 22 18 19 17 19 18 24 20 14 14 16 15 14 15 20 22 22 23
14 10 9 9 9 10 11 14 14 26 38 34 26 27 29 31 24 18 18 18 20 29 35 36 34 22 27 27 21 19 19 18 21 19 18 21 26 32 28 25 23 23 26 28 32
17 17 13 11 11 9 8 9 11 14 23 29 32 34 29 29 35 22 19 19 20 23 28 39 31 16 21 27 27 21 21 19 18 19 21 20 19 19 45 48 40 36 39 32 41
35 31 30 20 13 12 10 9 8 9 12 17 20 26 31 29 33 31 24 22 23 24 24 27 26 20 23 22 27 29 24 21 19 17 15 17 22 24 22 36 50 44 71 48 35
43 47 52 46 25 21 16 14 11 10 9 11 14 17 23 29 29 30 31 21 22 25 24 30 27 23 24 25 21 24 22 22 20 18 18 17 16 13 23 26 26 26 35 35 30
88 75 57 61 46 38 27 19 14 13 13 9 10 12 16 22 30 28 30 30 28 24 21 24 27 23 24 21 20 16 16 21 22 21 17 18 18 18 15 12 13 14 21 22 19
100 85 98 81 59 50 44 31 18 18 19 12 9 9 11 15 21 30 30 29 30 29 26 24 24 22 27 23 22 22 17 17 21 23 24 18 18 18 18 19 18 16 15 15 16
100 88 100 92 70 68 62 40 28 30 21 15 12 9 9 11 14 21 27 29 27 27 29 28 26 25 31 32 27 26 25 25 20 20 26 22 25 17 18 18 19 19 19 18 18
100 100 100 100 98 95 70 47 64 40 28 22 16 12 9 9 10 13 18 24 25 26 27 30 27 26 18 33 37 29 28 30 26 20 20 21 25 27 24 19 19 18 18 18 18
100 100 100 100 90 80 71 83 88 66 42 27 19 15 11 9 9 10 12 15 20 22 23 24 28 28 24 23 32 32 32 24 27 25 20 21 22 27 27 26 25 25 24 23 18
100 100 100 100 100 100 82 83 83 82 52 32 26 17 16 11 10 9 10 11 14 18 20 22 25 27 25 17 20 33 27 29 28 26 25 23 23 25 29 29 28 30 30 31 30
100 100 100 98 100 100 100 100 74 86 60 44 32 25 24 17 13 11 11 11 12 13 18 20 22 24 23 22 21 19 28 25 20 27 27 26 26 27 26 27 28 29 30 31 30
100 100 98 100 100 100 94 97 96 100 78 57 35 35 25 26 15 13 10 11 11 12 13 18 19 22 23 22 20 21 22 23 22 27 26 28 31 29 27 28 32 34 34 32 35
96 85 91 100 87 87 96 99 94 99 92 68 56 46 39 29 24 14 14 12 10 11 12 14 17 19 21 22 24 25 26 29 31 27 33 33 37 34 31 31 30 34 32 33 37
59 75 73 84 97 81 78 100 98 88 100 87 68 57 50 36 28 22 15 15 12 11 12 14 16 18 19 19 20 21 27 31 35 35 29 40 35 37 36 34 33 32 31 32 34
58 54 72 62 70 94 85 92 99 82 87 100 84 73 46 36 36 34 20 16 15 12 13 13 16 17 17 16 17 18 20 23 28 34 31 30 30 35 35 35 35 35 33 34 35
24 32 40 42 41 50 82 70 95 87 94 93 94 82 59 50 41 35 25 17 18 15 14 16 16 18 19 18 15 15 15 18 22 26 29 28 30 30 30 30 34 35 34 35 38

GFSSW_250_rhum_003.txt.gz
RH
21 20 19 22 23 22 20 20 22 23 23 23 24 24 26 23 22 19 17 17 13 16 16 14 8 16 9 6 40 51 29 25 28 32 55 61 68 63 33 29 20 13 18 49 67
22 22 22 22 24 26 27 22 22 21 21 22 23 23 22 24 24 22 18 18 17 14 14 17 13 8 8 1 11 50 82 62 47 41 44 46 39 31 33 34 34 28 33 36 29
17 17 21 21 22 24 22 25 25 26 25 22 22 22 24 24 23 25 23 19 19 18 15 16 20 17 9 6 4 56 100 75 70 49 45 35 27 36 43 35 24 14 9 3 6
17 18 18 17 17 18 22 24 26 24 26 30 27 26 27 27 28 26 24 23 19 19 18 15 16 20 18 9 6 40 79 37 31 33 40 27 28 64 48 35 22 43 54 50 31
25 23 22 20 17 16 16 17 19 22 24 23 26 30 29 30 30 29 27 25 22 21 20 18 15 17 21 16 7 7 20 26 20 20 59 60 46 44 68 72 67 53 48 39 41
30 28 25 24 27 24 21 19 17 17 19 23 26 24 26 29 28 28 30 27 24 22 22 21 18 15 17 22 13 7 7 9 11 13 21 59 58 39 38 29 21 11 7 8 9
37 34 32 25 23 23 28 26 23 20 18 19 21 23 21 22 24 27 26 29 28 26 22 23 20 18 14 17 22 11 8 7 8 8 10 16 21 16 12 9 8 6 7 9 9
38 37 38 39 32 22 26 32 29 22 22 18 18 18 18 22 19 22 23 27 28 28 26 26 23 21 18 14 16 18 12 10 9 12 11 9 9 9 9 8 7 7 8 9 9
16 20 22 22 25 26 26 27 28 27 24 24 20 19 17 16 16 19 20 20 28 27 26 28 26 23 22 20 14 16 20 13 10 10 9 9 9 9 8 8 9 10 12 12 14
9 10 11 13 14 16 18 23 19 24 31 25 26 24 24 21 18 15 15 18 19 29 30 28 28 26 26 22 20 15 17 24 13 12 13 12 10 10 10 11 12 15 16 17 18
14 14 11 11 11 9 12 14 15 22 23 34 30 27 28 30 28 19 17 15 16 21 32 35 32 23 25 26 22 19 15 17 21 22 20 14 15 13 12 13 18 20 21 23 26
15 19 16 15 13 12 10 9 10 13 15 18 23 39 28 30 35 27 19 16 15 17 22 30 39 28 24 28 24 21 19 16 21 22 22 24 24 27 23 21 22 27 32 31 37
34 26 18 20 20 21 14 12 10 10 11 12 12 15 32 33 35 30 26 19 19 16 20 23 31 23 30 31 25 25 20 20 18 19 21 21 20 20 24 36 30 26 41 46 38
56 59 45 33 22 20 22 19 15 13 11 13 10 10 12 19 35 29 31 29 19 18 22 22 24 21 24 37 34 27 25 20 22 19 16 19 20 20 17 36 40 45 48 57 49
83 100 99 67 56 46 30 24 21 17 15 18 15 9 9 11 15 35 33 30 26 21 22 31 33 24 22 32 33 28 25 22 20 20 20 19 16 16 22 20 23 29 36 43 27
100 95 100 100 82 65 65 54 29 22 21 19 24 18 11 9 11 13 33 37 34 25 21 28 28 23 27 25 26 23 17 17 22 23 21 18 19 19 14 13 18 24 30 31 32
95 91 100 100 100 76 76 59 47 25 37 23 24 19 18 12 9 10 13 31 38 39 25 33 32 31 27 27 25 22 19 14 17 22 27 23 20 18 20 19 16 14 13 15 16
95 99 100 100 99 99 98 74 65 70 66 26 23 23 18 19 13 10 10 14 28 34 35 26 32 36 33 29 29 29 26 24 21 25 28 24 21 21 18 19 20 20 19 19 19
100 100 99 96 100 100 78 88 100 86 61 60 32 22 20 22 18 12 10 11 16 25 32 32 32 34 34 31 31 30 28 28 24 23 26 28 20 20 23 24 22 19 18 18 19
99 100 100 100 100 100 100 98 100 100 81 66 47 31 27 23 24 23 15 10 11 16 23 33 33 32 31 33 30 29 29 24 26 24 26 29 26 19 21 22 24 24 23 24 22
100 100 100 100 100 96 100 100 100 100 79 81 68 43 27 23 28 36 23 14 11 12 17 23 32 32 31 32 31 28 28 23 21 26 24 31 30 28 22 22 22 22 24 26 26
100 100 100 95 95 90 100 94 97 100 100 82 61 67 43 28 27 35 35 22 14 10 12 17 23 31 30 29 30 26 28 28 25 27 30 29 31 31 28 24 22 24 24 27 28
100 100 97 81 94 91 97 100 100 100 100 91 71 73 61 33 31 31 39 31 18 12 10 12 16 22 30 28 28 28 27 27 26 24 19 25 32 32 32 29 27 28 27 28 29
71 66 80 89 90 86 100 100 100 94 100 98 87 77 91 52 36 38 38 34 21 16 11 10 12 15 22 24 24 25 26 26 26 24 24 23 37 39 36 32 30 30 31 31 30
52 64 62 61 68 82 78 96 100 91 93 96 87 94 97 71 49 43 41 38 30 22 13 10 10 12 14 19 21 23 24 24 25 27 27 38 40 46 41 34 33 33 32 33 34
24 33 43 51 49 53 60 79 95 98 89 87 90 90 92 85 72 56 53 40 38 28 16 12 10 10 12 14 17 21 22 22 23 26 28 30 30 44 45 41 38 36 36 37 37
7 8 11 19 29 33 42 46 62 83 98 83 84 95 100 87 72 68 53 56 42 44 25 17 13 10 11 13 15 16 19 20 22 23 29 29 31 40 37 40 42 42 42 40 41

GFSSW_250_rhum_006.txt.gz
RH
22 21 19 21 20 20 23 22 20 19 21 21 22 22 23 24 26 20 17 17 16 14 16 13 9 7 5 12 26 32 34 68 76 74 63 49 52 58 44 39 28 26 20 18 26
21 21 21 22 20 20 22 24 26 26 23 22 20 21 22 23 24 26 22 18 18 17 14 14 12 9 6 4 41 72 68 76 47 39 35 34 38 42 42 35 34 34 21 21 31
18 18 17 17 19 22 22 21 22 21 25 28 23 21 22 24 26 28 26 23 18 18 18 14 14 10 8 6 8 65 88 79 64 56 54 51 45 38 27 32 29 23 7 6 5
20 17 16 16 17 18 17 17 16 18 21 20 23 24 26 27 28 30 29 28 22 19 19 18 14 16 9 7 8 20 100 93 59 55 55 49 41 32 49 55 33 16 38 49 43
27 27 25 22 20 18 18 17 17 16 16 17 19 21 22 26 30 29 30 29 29 21 19 20 18 15 16 10 6 19 58 68 28 41 57 43 33 51 49 51 41 55 41 27 28
31 29 30 27 24 25 24 21 24 22 20 19 16 16 18 25 28 26 30 29 29 28 21 19 21 18 15 13 10 8 14 21 22 40 66 59 43 43 53 60 48 33 10 7 10
47 40 36 30 28 27 26 25 22 20 24 26 25 18 16 19 22 25 24 28 28 30 28 21 21 20 18 18 15 11 9 9 11 15 24 53 53 38 29 17 10 8 6 8 8
26 28 31 32 33 35 33 26 23 20 22 26 27 26 18 16 17 21 24 24 27 27 27 27 22 22 20 17 19 16 12 10 11 8 10 13 30 24 11 8 8 8 8 8 8
12 12 12 15 18 18 18 24 24 24 22 22 24 28 27 24 18 16 18 23 25 26 28 26 26 23 23 19 16 19 17 12 9 8 8 9 10 10 10 9 9 9 10 12 12
12 12 12 11 9 9 10 12 13 15 17 21 22 24 28 24 26 18 17 17 20 25 26 28 28 26 26 24 20 16 18 17 14 12 9 8 9 9 10 10 12 13 13 15 16
14 12 13 14 13 12 11 9 9 9 10 12 14 19 19 34 30 27 18 18 17 18 24 27 25 29 23 29 24 20 16 18 21 19 12 11 11 12 14 18 18 18 18 20 21
20 17 16 16 13 15 15 14 14 12 10 8 8 10 12 19 35 31 28 21 22 21 20 24 26 22 24 28 29 27 19 16 17 22 23 16 15 15 14 18 21 24 27 33 37
25 25 24 32 24 18 15 17 19 16 15 10 9 8 8 11 17 37 38 32 25 22 25 34 26 21 19 23 32 27 26 19 17 17 17 20 21 24 24 21 22 26 36 46 36
39 46 48 42 48 69 44 28 15 19 18 19 15 12 9 8 9 15 38 43 34 27 27 28 35 31 20 18 21 30 27 22 20 19 17 17 17 17 18 24 26 25 39 45 54
42 42 42 44 48 63 73 56 52 20 18 22 23 16 15 12 9 9 14 34 47 37 27 35 36 38 34 25 19 22 25 25 22 19 19 17 17 19 20 17 34 41 40 42 32
41 43 49 51 50 52 49 63 66 63 69 39 25 22 22 17 13 10 9 12 24 42 37 32 36 33 36 30 26 17 20 21 22 23 20 20 19 17 16 16 21 26 25 24 24
48 53 62 67 80 65 48 42 62 72 88 51 41 23 18 25 18 16 9 9 11 16 38 39 40 40 36 32 32 26 21 19 19 21 27 27 23 19 19 18 15 13 16 17 16
49 52 60 70 76 80 72 63 47 59 95 74 64 56 20 19 22 22 21 11 9 10 12 34 37 40 39 39 33 36 34 27 25 24 28 26 28 23 20 19 20 20 17 14 14
64 64 71 78 90 96 89 67 87 90 66 74 74 58 56 21 23 24 26 23 11 8 10 13 35 43 40 39 33 35 31 33 28 26 23 27 22 20 23 23 20 18 19 20 20
67 70 77 87 89 96 89 98 100 100 88 67 78 62 56 42 34 31 27 31 25 14 9 9 14 37 43 39 38 23 36 32 27 26 26 27 25 20 19 24 24 23 22 21 20
80 92 98 98 93 86 77 93 93 100 86 78 84 90 63 56 58 48 33 30 32 24 13 9 10 16 36 43 44 35 28 30 31 28 26 27 28 25 21 21 21 22 21 22 23
94 100 100 100 100 100 93 74 80 91 81 70 73 84 84 67 59 44 46 38 32 32 18 13 10 11 17 32 40 41 30 34 31 34 33 30 27 28 26 24 25 23 19 18 19
99 100 100 100 100 95 100 98 84 83 66 70 70 83 100 98 52 56 50 59 37 33 31 17 12 10 12 19 32 40 36 28 32 33 32 33 29 27 28 26 23 24 24 22 19
70 68 69 63 74 86 88 98 100 100 75 97 73 84 94 99 100 75 75 77 48 39 32 32 16 11 11 14 20 28 37 34 32 31 32 33 33 30 28 28 28 26 26 27 27
38 36 37 45 48 60 72 83 96 100 94 100 81 85 98 93 100 98 84 77 55 42 35 34 26 13 10 12 14 21 28 33 30 30 30 34 35 34 30 28 30 30 30 32 31
18 22 21 24 25 34 52 69 53 83 79 100 100 100 98 96 100 90 74 88 61 54 42 42 33 20 12 11 12 14 20 25 31 30 28 30 33 37 35 31 31 35 34 36 37
4 4 6 10 13 17 23 41 47 42 64 87 94 92 100 100 100 96 97 94 84 53 59 46 38 26 19 13 11 11 14 19 24 29 28 28 29 38 40 40 39 40 39 41 43

GFSSW_250_rhum_009.txt.gz
RH
20 20 20 20 20 19 20 19 20 21 21 20 21 22 22 22 21 20 16 17 16 13 16 15 7 5 6 11 19 24 27 20 24 29 25 52 55 58 40 36 25 23 26 23 22
20 20 20 20 21 20 19 19 19 19 17 22 25 28 23 21 23 23 20 18 18 17 13 15 14 6 6 5 16 28 58 44 65 100 88 62 42 37 35 32 36 34 34 25 22
17 17 17 16 16 16 16 16 18 19 18 16 18 25 29 26 24 27 27 22 20 18 17 14 15 11 5 6 8 43 59 63 100 76 36 32 40 42 39 38 30 33 23 7 5
18 17 17 16 17 15 15 16 17 17 16 16 15 17 22 30 30 27 28 27 24 22 19 17 14 18 8 6 8 12 59 78 66 60 67 58 52 48 40 31 34 24 9 23 33
26 25 24 24 24 25 23 19 16 15 16 16 15 15 16 21 27 30 30 30 28 24 22 19 18 15 18 9 7 11 57 92 90 55 52 51 42 41 42 38 42 23 50 40 32
34 33 32 30 30 31 30 29 24 22 19 19 20 17 16 16 18 22 28 29 28 27 24 23 18 17 15 14 10 9 23 53 57 45 44 51 42 52 43 50 44 46 41 9 7
33 33 32 31 28 30 32 26 26 27 25 21 19 25 22 23 21 20 22 25 27 27 28 22 24 18 18 17 13 11 10 8 13 19 56 48 37 50 44 45 35 18 5 6 9
18 17 18 19 18 20 21 21 21 20 26 28 25 23 28 25 27 22 26 22 24 26 26 26 22 24 19 18 18 15 11 11 10 10 16 34 62 46 33 12 6 8 9 8 8
9 9 9 9 9 10 10 11 12 12 20 18 22 27 27 29 28 27 23 30 20 24 25 25 24 24 23 20 18 18 14 13 10 10 9 12 42 47 14 7 8 9 9 9 11
14 12 11 10 10 10 9 9 8 8 9 9 15 16 21 27 28 28 27 28 29 21 27 26 24 22 25 25 21 19 19 13 14 9 9 9 36 9 8 8 9 10 11 11 12
16 15 14 14 15 15 14 13 13 10 9 8 7 9 11 18 24 30 31 28 36 30 28 28 24 24 21 24 26 21 18 20 16 14 10 8 11 9 10 11 12 16 16 18 17
22 18 18 19 19 22 16 14 16 19 15 11 10 9 7 9 11 18 27 35 36 41 24 30 32 25 19 22 27 25 23 18 21 21 15 11 10 12 15 15 17 19 21 22 26
28 28 27 27 27 33 33 28 28 22 19 15 19 14 12 9 8 8 14 23 37 42 40 34 35 29 19 20 24 26 25 22 17 20 24 22 20 13 15 18 20 22 26 37 38
41 35 35 29 32 35 39 37 34 35 31 37 24 24 16 14 11 8 7 11 19 37 42 40 38 35 32 24 23 24 25 23 20 18 23 21 25 26 22 18 22 26 30 41 47
39 39 36 33 30 34 39 42 45 41 27 35 50 28 21 22 17 12 9 7 8 18 34 54 51 43 39 37 30 26 21 21 23 19 18 17 18 21 21 25 22 23 27 34 42
33 35 36 33 33 32 41 46 51 47 52 49 44 44 32 24 18 23 16 12 7 7 16 37 55 51 45 39 27 33 26 18 19 23 18 20 18 18 18 16 18 30 29 28 35
33 32 31 31 32 31 41 49 46 44 55 59 75 50 32 35 30 20 21 21 14 8 7 16 40 54 52 41 39 30 32 27 18 18 25 23 20 30 19 15 16 16 29 43 45
36 39 35 33 35 38 39 44 47 65 71 68 64 62 64 39 26 25 21 22 20 16 9 8 18 34 43 42 38 40 36 36 28 24 30 31 27 26 22 18 19 17 15 15 16
38 40 47 48 50 46 45 44 56 75 79 85 90 87 67 69 46 28 23 17 19 22 17 11 8 16 31 38 42 42 29 34 34 29 26 26 30 27 23 24 21 19 18 18 18
41 45 52 56 57 63 62 57 69 77 85 92 87 85 88 94 69 70 34 33 30 22 26 19 10 9 14 29 37 47 39 32 32 31 23 27 28 27 21 22 25 23 20 19 19
38 41 47 57 59 60 61 72 73 80 89 97 100 93 72 84 94 81 66 45 30 23 24 27 16 10 9 14 20 31 40 41 34 33 30 31 29 28 26 21 24 26 24 22 21
49 47 46 64 63 60 57 69 83 83 81 89 100 100 100 82 77 69 95 75 42 36 24 26 27 16 9 9 13 19 32 40 39 36 32 28 29 30 29 26 22 22 20 18 18
47 46 54 52 59 72 80 87 88 89 97 93 100 100 100 96 64 73 76 94 58 44 46 34 30 29 16 11 9 12 19 32 37 38 33 33 32 32 30 29 26 24 22 21 20
39 40 47 42 48 40 45 49 72 86 80 88 100 100 100 97 72 78 70 85 76 62 65 40 34 28 29 22 14 9 13 19 34 39 37 34 33 34 32 30 29 28 27 26 24
20 20 22 23 23 25 28 28 37 59 48 70 70 100 100 100 78 80 90 91 87 76 64 49 49 36 29 28 20 12 10 13 18 37 38 35 38 34 33 31 30 30 29 28 27
18 18 18 18 20 22 22 21 23 29 32 33 38 86 100 91 98 96 100 90 79 80 58 83 61 42 36 36 29 16 12 10 12 19 37 37 38 37 35 35 34 31 31 30 30
11 12 14 14 12 17 20 19 21 23 23 37 40 43 62 73 85 71 52 62 56 72 63 75 92 57 42 46 32 25 15 12 11 13 20 33 36 35 36 35 34 33 32 31 32

GFSSW_250_rhum_015.txt.gz
RH
19 20 19 18 18 19 20 20 19 20 18 17 18 17 17 17 18 20 14 17 17 13 13 12 8 5 10 10 12 61 48 79 83 60 77 11 8 10 9 10 16 17 80 77 69
21 20 20 20 19 17 16 16 15 15 15 15 15 15 15 15 16 19 19 16 17 16 13 13 13 9 5 5 8 32 94 49 23 27 20 13 15 12 16 22 21 30 51 31 29
18 17 17 17 17 17 16 15 14 14 14 14 13 14 14 13 13 17 19 20 17 17 14 13 14 14 11 7 5 4 7 12 14 20 29 29 22 22 18 39 30 41 30 26 25
18 16 16 16 16 16 16 17 17 16 16 18 17 13 14 15 12 14 14 18 21 18 18 14 15 14 15 11 7 6 6 9 29 48 45 35 39 36 46 35 27 31 28 22 13
16 16 16 16 16 18 20 24 27 24 22 21 22 22 17 16 16 14 15 14 18 20 20 19 15 17 16 15 11 8 7 15 40 57 61 59 81 54 30 30 32 35 43 21 33
28 27 25 25 25 24 24 25 26 30 30 30 26 25 26 20 18 18 16 19 15 18 20 21 20 18 20 17 15 11 8 8 12 48 70 47 50 32 33 36 37 54 56 23 26
35 32 32 30 28 26 26 24 22 25 26 28 31 30 28 31 25 23 21 20 24 25 19 21 22 20 20 21 19 16 11 8 8 9 20 50 46 47 52 43 55 47 38 29 38
20 18 17 16 15 14 13 12 11 11 11 19 16 16 24 35 34 29 25 24 24 25 30 26 22 23 20 20 21 21 17 11 8 8 8 21 41 59 47 57 38 53 49 50 44
11 10 10 10 10 10 10 10 10 10 9 9 9 11 9 12 20 26 29 27 25 24 24 33 34 23 24 20 20 21 19 14 9 8 9 12 15 46 70 46 42 40 15 15 16
14 18 19 19 18 19 17 16 15 13 11 10 9 9 8 7 7 11 19 33 31 27 27 26 35 34 30 24 19 22 21 18 11 9 11 10 19 46 94 100 38 10 9 7 7
20 21 24 26 28 29 26 22 23 18 14 14 16 12 12 11 8 8 8 11 29 34 34 36 35 55 34 23 20 26 24 21 17 10 23 88 76 78 100 44 10 8 9 7 10
21 19 20 22 28 27 27 26 24 22 22 18 19 18 16 17 13 13 9 8 8 20 29 37 42 40 38 29 26 24 27 24 19 15 11 73 51 54 52 9 8 9 12 11 11
24 27 25 22 30 29 27 29 26 25 27 26 19 26 16 21 17 14 20 11 10 9 12 19 26 34 39 42 36 32 30 22 21 19 14 10 60 63 9 10 9 10 12 11 12
27 27 28 26 28 27 25 27 24 25 24 41 22 32 29 22 29 17 16 16 18 11 10 9 13 19 34 47 44 41 33 25 20 21 20 16 9 10 12 45 16 14 14 15 17
31 34 38 37 31 28 27 28 30 29 22 31 33 35 32 30 26 25 20 17 16 22 16 12 10 12 22 28 41 53 39 30 20 16 25 19 13 10 10 100 100 18 16 20 25
27 26 26 26 32 24 26 25 22 20 22 29 27 42 42 35 31 28 25 24 23 17 19 20 18 12 11 20 25 48 44 40 28 16 18 23 22 17 14 31 75 22 19 23 39
23 22 21 30 26 30 22 24 24 22 23 27 26 26 33 39 36 25 28 26 28 22 32 20 26 20 13 10 14 26 40 44 41 21 24 27 29 25 19 17 16 40 38 24 35
24 25 32 34 37 28 33 24 20 24 27 24 24 26 24 28 32 28 26 28 29 26 31 32 25 30 21 16 11 12 20 31 46 49 33 31 23 38 27 21 20 23 21 50 100
22 25 37 33 34 31 30 34 30 29 32 30 23 19 21 27 33 32 24 26 28 27 27 30 40 30 24 27 15 12 12 19 28 49 32 32 23 31 30 28 21 18 20 31 92
20 24 37 34 36 34 30 28 28 32 30 29 29 28 22 20 21 29 29 30 34 30 28 35 32 33 24 20 25 20 17 12 16 28 46 45 31 29 26 28 32 22 19 22 95
23 26 33 30 29 28 27 25 23 23 25 26 29 30 29 29 26 21 26 25 25 34 34 32 18 36 24 17 22 26 25 20 11 14 24 45 43 39 33 30 35 32 27 19 20
22 27 30 26 20 20 24 28 28 29 23 19 20 26 37 35 34 25 22 24 27 28 22 26 28 18 18 24 20 15 20 20 17 13 12 20 44 45 40 35 28 32 30 24 21
12 15 21 17 14 13 11 12 15 23 24 24 26 21 25 30 33 30 35 39 36 27 24 27 21 18 19 14 14 24 24 30 22 25 11 11 20 40 44 41 36 34 34 29 23
7 7 10 11 10 10 10 8 8 12 19 24 25 28 25 23 26 27 24 41 51 42 34 32 28 21 20 23 34 20 33 29 24 21 23 13 12 21 35 44 43 39 35 35 29
6 7 7 8 8 7 7 7 8 9 9 10 16 21 24 28 27 26 31 39 34 37 43 42 32 27 25 26 26 22 23 22 25 22 21 27 17 12 19 34 44 44 40 37 35
6 7 7 7 7 8 8 8 8 8 8 9 9 11 14 17 22 26 29 32 37 36 35 38 30 30 28 31 33 26 24 23 23 28 28 30 27 19 18 17 30 42 44 42 38
10 9 9 10 11 12 14 14 14 15 17 17 15 13 12 13 14 18 24 24 36 40 38 35 36 42 41 37 45 45 28 33 38 51 48 38 34 38 20 22 15 25 36 41 42

GFSSW_250_rhum_021.txt.gz
RH
14 15 15 16 18 18 20 20 20 19 16 16 15 14 13 12 12 11 10 13 14 12 11 7 7 14 9 6 7 18 18 20 26 90 100 100 97 87 70 85 85 44 17 13 10
18 17 18 18 19 19 18 18 18 16 16 16 14 14 13 12 12 12 11 10 13 14 10 12 9 6 10 12 9 42 53 50 36 20 34 56 71 89 95 86 60 19 11 11 13
19 20 20 20 19 18 16 16 15 16 15 15 14 14 14 14 13 11 12 12 10 12 14 11 11 10 7 6 9 9 8 15 30 32 37 63 75 93 94 87 49 16 15 12 16
20 19 18 16 16 15 15 15 14 14 14 14 13 13 14 16 15 14 13 13 12 11 12 13 11 10 13 10 7 6 6 6 7 11 28 26 29 27 36 45 23 20 18 22 22
16 16 15 15 14 14 14 14 13 13 13 12 12 14 16 18 19 14 15 16 15 14 12 11 12 14 12 12 13 10 8 7 6 6 7 10 25 43 46 42 28 19 19 26 25
17 17 16 16 17 18 18 19 19 19 18 19 19 18 18 18 17 17 17 17 18 17 16 13 13 13 15 16 12 12 13 10 8 7 19 22 38 59 72 80 81 51 28 33 32
31 30 28 28 28 26 26 25 25 25 24 25 25 26 25 22 20 20 17 19 18 22 19 17 15 13 14 19 17 14 15 14 11 9 8 8 14 58 76 63 65 48 40 38 39
34 34 32 34 34 34 31 29 26 22 21 21 20 20 19 18 18 18 17 19 20 22 23 24 21 18 15 18 18 17 16 18 16 11 11 10 12 51 66 77 56 50 44 38 41
47 37 32 30 28 26 24 20 18 17 13 11 11 11 11 10 10 11 13 14 19 23 25 26 29 23 24 22 18 17 18 17 19 14 15 17 15 26 43 56 64 53 40 46 53
42 30 20 17 16 14 12 12 13 10 10 10 10 10 10 9 8 8 9 9 11 14 20 24 34 33 28 26 20 18 22 19 21 18 16 23 21 12 21 55 48 38 39 48 46
26 20 22 18 14 11 10 10 10 13 12 14 14 13 14 13 12 10 10 9 9 9 10 18 32 41 34 30 22 22 28 24 18 19 20 25 40 28 39 44 46 34 34 27 10
15 13 12 12 12 12 12 15 17 17 19 23 22 17 18 17 15 14 13 11 11 10 9 9 14 24 32 34 32 26 22 30 22 18 17 21 68 44 54 67 59 71 52 9 10
15 17 16 16 19 18 21 21 22 23 21 21 24 28 16 29 21 21 18 14 14 15 12 10 9 10 17 24 27 38 32 22 20 22 17 22 25 66 51 53 35 21 9 8 10
15 19 28 24 24 21 26 27 27 26 25 47 19 26 25 26 33 17 21 16 16 19 16 17 12 11 9 13 21 32 46 28 20 23 16 19 20 21 43 68 10 8 9 10 11
25 24 28 35 31 30 27 26 26 25 20 40 32 25 33 26 37 17 19 19 21 15 21 22 19 15 14 10 11 19 29 28 24 21 15 19 27 21 14 45 9 9 10 11 10
20 31 34 34 37 33 31 27 25 25 21 29 37 31 26 28 34 26 24 21 18 16 23 24 21 23 17 14 13 10 13 20 27 25 21 32 26 32 22 14 11 12 11 12 12
22 23 33 38 36 39 38 27 30 28 33 32 29 45 39 30 28 32 30 24 26 24 26 24 23 24 24 24 18 15 10 10 15 22 45 32 25 27 28 22 12 42 23 19 15
20 21 24 30 40 35 37 37 24 28 29 31 32 33 44 42 34 25 27 27 27 25 26 27 26 31 27 28 18 18 14 10 9 14 26 33 30 32 25 25 16 21 79 40 20
22 23 20 20 28 37 30 31 32 31 29 30 27 26 25 33 32 30 24 25 24 22 22 22 26 28 26 26 20 25 15 20 10 8 11 20 36 37 25 22 23 22 40 100 67
19 24 22 20 19 28 35 32 29 28 28 27 29 26 24 23 24 25 25 24 22 20 22 20 21 21 22 19 18 17 24 16 14 11 8 12 27 46 39 28 22 21 25 28 27
16 19 22 23 21 17 23 28 29 28 25 24 23 22 22 20 20 20 20 18 17 16 16 19 18 19 18 16 20 20 23 20 14 12 12 11 11 37 47 39 26 21 26 30 26
15 16 16 20 21 20 15 18 21 24 22 21 20 21 21 16 16 16 18 15 16 15 13 15 16 23 18 19 20 16 15 15 14 23 18 14 13 11 29 47 37 26 27 27 25
12 13 13 15 18 18 19 17 16 19 19 15 17 16 16 18 18 12 14 14 15 15 12 11 12 22 21 14 15 13 15 15 19 22 25 22 24 13 10 21 39 43 36 32 30
13 10 8 9 13 14 15 17 14 14 18 17 13 15 15 16 16 16 14 15 15 13 11 10 10 19 22 20 15 15 15 18 17 17 28 30 49 18 16 13 13 34 45 42 36
10 12 12 11 9 8 10 11 12 14 12 11 13 12 13 14 15 14 14 14 16 17 16 12 11 15 19 16 10 9 10 14 13 15 17 46 31 40 26 28 22 15 18 39 48
3 4 5 9 11 12 12 9 8 9 10 11 10 10 10 13 14 14 12 14 15 19 18 15 13 15 19 16 13 8 9 11 11 14 14 20 21 35 41 34 35 26 20 17 15
2 2 2 2 2 5 10 13 14 12 9 8 8 10 10 10 11 11 11 13 15 14 14 15 15 22 21 22 18 9 8 11 12 12 12 13 23 28 28 29 31 30 27 23 22

GFSSW_250_rhum_024.txt.gz
RH
13 12 13 13 14 15 16 17 19 20 19 16 15 13 12 12 11 10 9 9 10 12 10 6 10 14 8 8 9 12 17 21 24 33 56 51 54 77 90 89 100 90 80 82 44
14 16 15 14 16 17 19 19 18 17 18 16 15 14 13 12 11 11 9 10 9 9 10 12 6 7 13 11 7 8 12 23 29 21 20 27 48 90 84 86 71 81 94 71 65
18 18 18 18 19 19 18 18 18 17 16 15 15 15 14 13 13 11 11 11 10 10 10 9 12 10 8 8 12 17 11 10 31 40 35 27 27 22 18 33 73 74 65 44 46
20 20 20 20 19 19 18 16 14 14 14 15 15 15 15 12 12 13 13 12 13 10 11 10 10 12 14 12 10 9 8 9 11 14 11 16 21 20 25 32 26 18 22 21 17
20 20 19 18 17 16 16 15 14 14 14 14 13 12 12 12 12 13 16 14 15 16 13 10 10 11 11 14 15 14 12 10 7 6 6 5 5 5 6 12 42 50 37 35 20
18 17 17 17 17 16 16 16 15 17 17 17 16 15 15 15 15 16 16 16 14 15 20 14 14 11 12 14 13 16 18 16 12 8 7 7 6 6 9 21 43 48 55 69 44
23 25 24 24 25 24 23 25 22 24 22 22 18 17 16 16 15 16 15 16 17 16 15 18 20 14 13 14 12 15 18 20 17 12 9 8 8 16 10 29 57 97 76 54 52
33 32 37 34 33 29 28 30 28 29 29 28 23 22 22 20 18 18 17 17 16 17 15 17 26 23 16 15 13 15 18 22 23 23 13 10 12 20 11 26 55 64 58 54 49
37 40 42 44 42 39 39 36 29 25 21 20 19 19 18 16 13 11 12 15 17 16 16 18 25 25 24 22 19 14 16 21 21 22 19 14 23 23 13 22 48 59 52 53 45
53 44 50 54 56 49 42 34 22 19 18 14 11 10 11 11 9 8 8 8 9 10 11 15 17 24 32 32 25 18 21 21 23 21 19 17 32 28 21 18 45 56 54 50 46
69 78 69 63 68 62 44 30 25 20 13 12 11 10 10 10 9 9 10 8 8 8 8 10 15 22 23 32 22 27 25 30 33 21 20 19 29 42 34 40 40 59 57 43 48
39 44 39 30 30 37 38 32 19 14 13 13 12 12 11 13 12 12 13 12 11 10 10 9 9 10 16 28 36 38 36 33 31 26 19 20 19 45 45 53 71 78 88 40 24
24 22 20 20 20 20 19 18 18 16 15 17 15 15 11 16 20 20 17 15 13 12 11 10 9 9 9 13 24 35 46 36 31 26 25 23 22 26 57 64 61 44 77 44 8
20 20 19 18 16 16 15 14 14 13 15 29 16 18 18 18 26 20 20 18 18 19 15 16 11 11 10 9 10 18 36 32 30 28 25 28 26 25 35 48 62 13 15 9 8
16 16 16 16 17 16 16 16 17 18 16 26 25 21 23 19 25 23 22 18 23 23 18 21 13 16 14 10 9 9 13 15 20 30 26 34 34 23 18 19 44 9 9 10 9
21 21 21 22 19 18 19 20 20 24 22 28 31 32 28 28 30 30 23 21 26 23 22 23 19 25 16 11 13 8 9 9 11 22 35 44 42 33 20 18 26 10 10 10 13
17 20 22 26 25 21 18 18 21 20 28 31 33 40 37 26 26 34 25 34 26 25 26 28 19 23 20 16 19 11 10 8 7 11 45 45 43 39 21 19 17 10 11 11 11
14 15 18 24 29 28 22 18 19 24 30 28 36 36 38 46 32 23 31 31 30 26 30 28 24 26 30 26 20 11 10 12 9 8 15 30 47 43 33 20 14 12 15 12 12
14 13 14 16 20 29 31 25 22 23 24 33 31 35 34 34 48 36 25 32 32 28 27 27 25 26 26 30 20 14 14 13 11 10 8 12 39 48 42 33 23 14 24 29 16
16 15 15 14 16 17 20 26 27 22 21 25 40 29 33 31 36 52 38 24 30 31 30 29 29 28 25 24 24 23 22 15 16 13 14 8 12 27 46 42 34 24 18 15 39
20 15 16 16 14 14 14 17 18 21 23 22 26 40 30 32 35 33 44 36 27 29 26 28 26 24 22 22 22 24 26 19 15 17 20 14 19 14 24 40 42 34 29 22 17
15 11 11 12 14 14 14 13 14 16 18 23 22 25 38 32 29 38 33 34 30 27 27 26 26 28 24 22 22 21 20 18 14 22 22 19 26 19 14 15 35 43 33 27 28
10 10 10 10 9 8 11 13 14 14 13 17 21 22 29 37 31 30 35 34 29 26 24 24 21 24 24 18 16 18 18 18 18 18 23 27 54 28 19 14 13 38 46 38 32
5 5 6 8 11 13 10 7 10 12 12 11 15 21 21 31 34 28 28 31 33 30 25 23 21 20 20 19 14 12 18 16 16 14 22 26 69 47 30 22 13 12 34 46 43
2 2 2 3 4 7 12 15 13 8 9 10 10 14 20 20 30 29 26 26 26 25 25 23 21 20 18 17 15 10 12 18 15 15 14 41 42 42 29 24 21 16 12 22 39
2 2 2 2 2 2 5 10 13 16 13 8 9 8 14 18 18 27 25 21 23 23 22 21 20 19 18 16 14 11 10 14 16 14 14 22 25 43 27 23 25 26 28 24 18
1 1 2 1 2 2 2 4 7 12 14 16 12 7 7 12 17 16 17 20 19 18 19 18 17 16 15 14 13 11 10 14 18 17 12 17 24 44 41 23 26 27 29 30 28

GFSSW_250_rhum_027.txt.gz
RH
14 13 12 12 12 13 13 14 14 14 14 13 13 14 13 13 12 10 9 9 9 10 9 6 8 12 10 7 8 10 15 21 20 23 27 29 47 66 58 57 64 59 74 80 83
12 12 12 13 14 14 14 16 16 16 15 15 14 13 14 13 13 13 10 9 9 10 10 11 7 6 10 12 8 8 9 13 17 18 22 24 25 27 35 36 29 33 38 64 61
16 16 16 17 17 18 18 17 17 17 17 16 16 14 13 13 14 13 12 10 10 10 9 10 11 10 7 7 11 11 7 8 9 12 14 16 26 24 18 21 24 30 27 32 42
19 19 18 18 19 19 19 19 18 17 16 15 14 14 14 14 14 14 12 11 11 11 10 11 10 12 12 12 8 7 10 12 10 7 8 12 31 31 15 15 13 19 23 13 20
18 19 20 20 19 19 19 18 17 16 14 14 14 13 14 14 14 12 12 12 12 13 10 11 12 12 12 13 13 12 9 8 7 7 7 8 7 6 6 7 8 8 25 35 32
20 20 20 20 20 19 18 17 16 16 16 15 14 14 16 17 15 15 14 14 15 16 14 12 13 16 14 15 16 14 13 12 9 9 9 7 7 7 8 10 9 21 52 45 54
21 20 19 19 18 19 21 22 20 19 18 18 18 17 17 19 15 15 16 16 16 17 18 15 15 16 17 17 15 18 16 11 11 12 13 10 9 8 15 10 19 41 94 69 59
26 28 30 28 24 28 29 29 34 33 28 25 22 20 21 22 20 19 18 18 17 17 17 17 20 17 19 19 19 17 20 18 11 10 12 11 11 10 22 14 25 48 90 71 60
46 41 41 37 33 31 31 31 34 38 37 29 28 27 26 21 21 20 20 18 15 13 17 19 18 19 19 25 27 19 17 22 17 14 11 12 14 15 26 24 23 48 56 62 55
43 35 31 32 40 39 40 40 41 41 44 40 36 31 24 21 18 13 12 12 13 10 9 10 13 16 18 25 30 16 21 25 26 19 16 17 16 19 33 40 26 43 43 47 52
37 33 28 30 44 46 42 47 52 59 49 48 51 33 24 22 16 14 11 9 8 8 8 8 9 10 11 16 17 15 24 29 30 29 20 19 16 20 35 40 48 31 41 47 50
26 27 35 35 44 45 46 44 62 58 45 57 55 41 32 21 13 13 11 11 10 9 8 8 7 8 9 12 15 26 37 41 35 31 24 20 19 19 36 42 52 59 31 45 53
21 22 24 27 30 32 36 28 33 41 31 25 24 19 24 21 16 13 11 11 11 10 12 10 8 10 10 9 11 16 35 46 47 40 28 23 28 20 21 43 52 67 58 57 54
24 24 25 26 26 27 29 30 27 23 20 19 19 20 19 18 16 15 13 14 13 16 15 16 14 13 11 10 9 10 14 22 40 48 39 27 27 30 20 26 48 51 38 45 21
15 15 16 17 18 18 17 18 19 19 19 18 18 16 16 15 16 17 16 13 20 21 18 23 15 15 16 13 11 10 8 11 19 35 48 42 36 32 33 18 38 39 26 11 8
13 12 12 13 16 17 15 14 14 15 14 14 16 18 16 16 16 20 20 16 20 20 24 28 23 23 28 14 14 10 9 9 10 20 44 50 46 40 40 26 21 30 20 10 7
15 14 14 14 13 14 15 15 14 14 19 16 16 18 20 20 22 23 25 22 19 23 24 31 34 29 26 17 14 12 11 8 8 10 41 47 49 46 36 35 19 19 16 10 7
15 14 15 15 16 16 16 15 15 14 15 18 20 18 22 29 27 26 29 28 23 21 24 26 25 25 29 23 17 13 11 13 12 10 11 18 46 44 37 39 26 19 17 10 10
15 15 15 16 17 17 16 16 14 14 15 20 26 22 19 25 36 37 33 35 29 25 19 24 27 28 32 27 18 13 17 14 13 13 10 13 35 41 41 36 37 26 18 11 11
16 14 11 13 13 15 16 16 14 14 14 16 25 27 22 21 28 47 44 33 31 30 28 25 30 29 28 23 16 16 15 16 22 26 22 17 13 26 41 36 42 35 31 14 13
11 11 11 11 11 10 11 12 12 13 14 15 16 25 30 22 23 34 46 41 29 28 32 26 28 34 28 24 25 28 27 23 25 24 35 28 18 15 19 32 39 41 37 26 24
8 9 10 11 12 12 11 10 9 10 11 13 14 17 28 29 22 23 36 47 42 30 27 32 27 32 28 30 28 27 26 17 18 27 27 24 22 23 15 14 28 42 43 32 24
2 2 3 4 7 10 12 14 12 9 8 10 12 14 19 29 27 22 24 39 48 40 31 26 27 33 30 29 28 26 23 21 24 26 26 30 40 31 32 19 12 22 40 44 38
2 2 2 2 2 3 5 9 14 13 12 9 8 13 15 20 24 28 23 25 40 44 39 28 26 30 32 32 30 26 22 22 22 21 28 37 47 26 26 25 21 13 20 37 42
2 2 2 1 2 2 2 3 7 12 14 15 11 8 13 15 17 20 26 23 24 35 40 35 28 28 30 28 28 25 23 21 20 20 20 56 41 22 20 20 20 20 13 17 26
2 2 1 1 1 2 2 2 3 5 10 14 16 11 8 13 13 14 17 23 22 24 32 35 30 29 26 26 27 26 24 21 18 20 19 42 37 31 21 20 20 24 27 18 17
2 2 2 1 1 1 2 2 2 3 4 8 12 15 12 9 12 13 13 15 20 21 24 29 32 29 31 25 24 23 23 20 14 17 20 28 43 48 19 16 19 23 26 31 25

GFSSW_250_rhum_030.txt.gz
RH
17 17 15 14 12 12 12 12 12 12 11 12 12 12 13 13 12 11 11 11 10 10 11 7 8 10 8 8 7 7 9 11 16 23 24 25 30 46 30 31 25 29 30 38 40
13 12 12 12 12 12 12 12 12 13 13 12 12 12 12 14 13 11 11 11 11 10 10 10 10 7 9 13 10 8 7 8 10 15 19 22 22 20 20 20 21 24 23 21 23
13 12 12 12 13 13 14 13 13 14 15 14 13 14 14 13 13 12 11 11 11 9 10 10 10 10 10 7 12 16 12 9 8 9 10 16 16 15 17 20 26 27 37 46 50
16 17 17 16 16 16 17 17 16 16 16 16 16 16 15 14 13 13 12 12 12 11 9 10 10 10 10 10 10 7 10 16 14 10 9 9 10 13 12 22 37 34 20 16 11
15 15 16 17 18 18 19 19 19 18 18 18 16 15 15 14 12 14 14 13 12 11 10 10 10 13 11 11 10 11 11 9 9 10 11 10 10 10 14 13 9 6 7 8 14
16 16 16 18 18 19 20 20 19 18 17 16 16 15 15 16 14 14 14 14 14 12 11 12 13 13 14 14 13 11 12 13 13 11 8 8 8 7 7 8 9 11 11 15 32
20 20 21 21 21 21 20 19 18 17 17 16 15 15 15 17 14 15 16 16 15 16 14 14 16 18 15 16 14 13 12 11 13 14 14 13 12 10 10 10 18 15 18 38 56
22 21 21 20 20 20 19 20 22 19 18 23 21 21 18 22 18 17 18 17 18 17 17 16 16 19 20 18 17 15 15 12 13 14 14 14 16 12 12 20 23 18 40 66 57
42 38 41 39 35 30 34 32 36 33 30 29 26 22 24 33 24 21 21 20 22 18 19 19 16 17 19 21 21 17 14 13 15 14 16 16 16 14 16 32 29 22 44 62 55
38 41 37 40 42 41 36 36 36 36 29 24 26 25 22 32 33 27 26 24 21 20 19 18 16 14 16 21 23 18 15 16 20 18 16 18 17 16 17 37 36 25 34 52 45
28 29 29 30 37 38 41 40 37 33 28 29 30 27 32 30 35 31 29 24 19 16 12 13 13 13 10 12 17 18 18 20 37 25 20 20 18 17 19 38 34 32 28 34 38
31 34 41 40 40 34 32 33 34 31 30 30 38 33 27 32 35 35 31 28 20 15 14 10 9 9 8 8 9 11 15 34 47 41 25 24 22 20 18 34 41 42 35 37 35
27 25 23 23 23 33 31 24 28 25 31 44 49 45 35 39 36 46 42 33 25 15 12 11 10 9 8 8 9 9 10 15 47 48 36 29 26 26 21 19 42 39 48 38 41
19 19 20 21 19 17 20 25 24 22 18 38 40 41 32 40 42 30 29 32 23 19 16 11 10 10 10 9 9 9 8 8 14 48 48 33 35 28 26 20 27 51 59 44 38
13 13 14 15 16 16 18 17 20 25 25 22 35 34 28 24 26 27 22 22 20 18 19 16 11 9 9 9 11 11 9 9 10 15 34 30 40 40 30 28 22 30 40 41 26
14 14 13 12 12 12 12 14 16 16 18 22 26 30 30 29 25 22 18 18 19 18 15 15 13 12 22 16 16 12 10 9 9 11 23 57 52 48 43 31 30 22 33 34 10
11 13 14 15 15 14 14 12 12 14 14 13 16 21 22 22 22 22 20 18 17 19 18 20 22 26 21 22 18 15 12 10 9 9 15 28 35 53 49 34 33 24 24 25 11
13 9 8 9 10 10 11 13 12 12 11 12 13 17 20 19 17 17 17 18 17 16 17 15 16 21 28 27 22 14 14 11 13 11 10 11 22 28 44 28 29 27 24 20 11
10 8 7 7 8 8 8 9 9 9 12 14 14 16 17 20 18 16 16 16 18 18 18 22 19 27 21 21 17 15 18 22 15 13 12 13 12 16 25 26 34 30 28 22 12
10 10 9 9 9 9 10 8 7 9 11 12 14 14 16 19 23 22 17 15 17 19 15 17 18 25 28 21 16 18 20 15 21 27 26 20 14 15 18 36 40 33 37 27 13
5 4 4 5 8 11 12 11 9 8 8 10 10 13 13 18 22 26 22 19 16 16 20 22 29 24 28 18 18 21 20 21 26 42 38 24 18 13 10 20 38 45 43 35 20
3 2 2 2 2 2 6 12 12 11 12 9 10 12 14 15 19 22 24 21 19 18 25 23 30 25 36 31 23 22 22 23 22 43 50 29 26 13 12 10 25 45 42 38 28
2 2 2 2 2 2 2 3 7 11 12 14 12 10 12 16 15 17 20 25 23 21 20 27 31 30 32 27 23 19 21 21 21 35 42 34 34 30 26 12 12 34 46 43 37
3 2 2 2 1 1 2 2 2 4 9 14 15 14 11 13 15 14 15 19 24 23 21 24 43 35 28 36 30 26 24 21 21 32 43 53 41 29 27 24 12 16 30 47 46
3 2 2 2 2 1 1 2 2 2 3 8 15 16 16 13 12 14 14 15 21 25 22 19 24 40 32 26 24 22 25 23 26 32 39 65 49 30 25 25 22 13 14 25 44
3 3 2 2 2 2 1 1 2 2 2 3 7 14 18 20 14 11 12 14 15 23 24 21 18 25 34 30 24 23 25 26 28 30 37 59 58 36 24 31 24 25 25 16 16
4 3 3 2 2 2 1 1 1 1 2 2 3 6 12 19 21 16 12 12 14 16 26 24 20 18 29 32 28 19 23 27 27 26 29 50 68 58 28 28 23 22 21 20 15

GFSSW_250_rhum_033.txt.gz
RH
20 20 19 17 16 15 13 12 12 12 12 11 11 10 12 12 11 12 11 10 10 10 9 7 7 7 8 9 10 13 13 17 17 19 23 23 24 26 26 45 53 63 30 22 23
20 17 15 14 13 13 12 12 11 11 11 12 11 11 10 11 12 11 12 12 10 10 10 9 9 8 8 9 8 8 11 68 21 12 14 15 19 23 23 25 23 20 19 19 19
14 13 12 11 11 11 11 11 11 12 11 11 12 11 11 11 11 11 12 11 11 10 10 10 9 9 10 9 8 11 14 90 11 11 10 8 12 17 17 19 18 17 15 14 27
12 12 13 14 14 14 12 11 12 13 13 12 13 12 12 11 12 11 12 12 12 11 10 10 10 10 10 10 11 10 9 14 13 13 11 9 9 9 10 14 13 12 9 18 29
14 14 14 15 15 14 14 14 14 16 16 16 15 15 15 13 11 14 12 12 12 11 11 10 10 10 12 12 12 11 11 11 9 8 11 13 13 20 21 10 10 10 13 10 6
15 15 14 14 13 14 14 16 16 17 18 18 18 18 18 17 14 14 13 13 12 12 12 11 10 12 11 11 14 14 12 12 12 12 10 8 7 7 7 7 7 7 10 14 14
15 15 15 15 15 15 16 16 17 18 18 18 18 18 18 18 16 13 15 14 13 13 12 13 12 12 10 12 12 12 12 15 14 13 14 14 12 12 10 10 10 11 17 14 20
17 19 20 20 19 19 19 19 18 19 18 17 17 17 16 17 16 15 15 15 14 14 14 13 13 12 13 12 10 11 12 13 18 16 15 16 14 15 15 12 12 14 16 14 35
32 27 25 27 25 24 22 21 19 19 18 17 16 16 16 17 18 17 15 19 17 18 17 16 14 16 14 14 12 12 14 13 18 21 18 18 18 16 15 14 17 18 16 15 46
38 37 37 38 36 34 29 27 29 28 31 31 22 21 20 19 24 22 18 23 23 22 22 20 18 16 18 18 18 15 12 13 16 23 26 21 20 18 18 16 21 22 15 20 37
27 28 29 31 33 34 31 29 28 27 30 28 35 30 29 30 29 29 20 19 23 28 27 22 23 22 18 18 17 14 12 14 18 20 30 29 22 20 19 18 21 31 17 22 35
28 28 25 24 25 24 24 27 29 24 28 29 34 37 36 35 29 27 26 23 28 28 24 26 22 21 18 18 14 15 13 14 19 19 27 34 29 24 22 20 19 41 23 20 23
26 25 25 25 25 23 22 24 27 27 28 49 34 30 31 32 31 29 27 28 35 32 33 31 25 20 14 10 10 12 11 10 12 16 23 23 37 30 25 24 20 31 40 22 20
16 16 17 19 21 22 21 20 19 24 26 42 43 42 32 31 28 31 27 37 26 55 39 32 26 18 14 13 10 9 8 8 8 9 12 16 37 36 30 26 28 23 46 41 23
13 12 12 12 13 15 16 18 17 19 20 21 30 32 32 30 29 28 37 32 38 44 43 45 33 25 16 12 10 10 9 8 8 8 9 10 16 43 37 32 33 26 30 50 45
15 14 13 13 11 10 10 10 11 16 16 17 19 26 26 28 26 24 26 34 36 31 39 30 30 25 22 19 12 10 10 9 9 10 9 10 13 36 42 41 33 34 23 29 42
16 14 11 10 9 10 10 11 10 9 11 14 12 14 21 24 27 24 22 20 33 27 33 24 27 22 22 21 16 11 11 10 10 11 13 12 12 46 49 47 39 39 30 23 29
10 9 9 9 8 7 7 7 7 9 11 8 9 11 14 23 25 26 27 26 27 29 24 23 22 20 18 17 17 13 11 10 13 12 13 11 9 12 25 50 44 43 32 30 24
10 10 10 9 8 8 9 10 11 9 6 5 9 12 14 17 20 21 20 27 28 32 29 23 21 20 16 15 13 14 12 19 13 14 15 14 11 10 10 33 35 44 34 38 26
10 8 6 6 6 6 7 10 11 11 8 8 8 12 14 13 14 17 18 21 25 26 28 26 23 21 18 15 13 12 19 10 13 19 20 18 16 12 9 19 28 36 41 41 35
4 4 4 3 2 2 2 2 5 10 10 11 12 8 10 10 11 14 17 16 15 20 22 23 22 20 18 15 13 15 12 14 21 27 28 32 21 11 9 10 23 42 48 46 39
4 3 2 2 2 2 2 2 2 3 8 10 12 14 9 7 10 14 16 13 14 14 19 19 19 20 18 20 17 16 14 18 26 39 48 49 20 16 10 10 12 30 47 47 44
3 3 3 2 2 1 1 1 2 2 2 5 12 13 13 10 8 12 14 13 16 18 19 18 17 20 21 20 15 13 13 18 23 33 38 37 21 18 14 12 10 16 42 44 47
4 4 3 2 2 2 1 2 1 2 2 2 5 11 15 14 12 10 12 13 16 15 19 21 19 16 19 21 33 20 16 19 22 28 36 52 35 32 24 15 12 12 27 43 46
4 4 3 2 2 2 2 2 1 1 2 2 2 5 13 16 14 11 8 12 16 16 19 22 21 21 27 23 17 14 18 19 23 32 35 56 55 36 32 21 19 12 15 32 44
6 4 3 3 2 2 2 2 2 1 1 2 2 2 6 15 15 14 9 10 15 13 15 20 23 23 20 15 16 15 18 18 21 31 40 50 66 49 29 24 22 21 15 20 29
7 5 4 3 2 2 2 2 2 1 1 2 2 2 3 8 14 15 13 10 13 14 15 18 26 22 21 17 16 15 21 26 26 36 44 47 69 73 31 31 25 29 22 14 14

GFSSW_250_rhum_036.txt.gz
RH
20 21 21 21 20 18 16 14 14 13 12 11 10 11 12 11 11 11 10 9 7 7 7 9 10 10 12 16 20 13 59 96 66 36 16 15 18 25 24 26 28 28 26 34 26
22 23 22 20 18 15 13 13 13 12 12 12 11 10 11 11 10 12 12 10 10 10 9 8 7 7 8 10 13 14 15 18 20 23 21 17 15 14 17 20 21 25 24 20 19
25 23 22 18 15 13 12 11 11 10 11 11 11 11 10 11 10 10 12 12 10 10 10 10 9 8 8 7 8 8 9 13 20 66 100 100 34 11 11 10 11 17 19 17 17
25 24 22 16 13 12 11 12 11 11 10 10 11 10 11 10 10 10 11 12 12 10 11 12 11 10 8 8 8 8 9 11 14 50 74 46 10 10 20 11 11 11 10 11 9
23 20 17 13 12 12 12 14 14 13 13 11 11 11 11 10 10 12 10 11 12 11 10 11 12 11 10 10 9 8 8 10 15 20 20 10 48 99 75 14 13 17 12 8 7
20 16 14 13 13 13 13 13 13 12 12 14 13 13 13 12 11 11 12 11 12 11 10 10 11 12 13 11 10 9 9 9 10 10 9 10 12 48 10 7 7 7 8 10 13
15 14 13 13 13 14 14 13 12 12 12 13 16 16 17 15 14 10 14 13 12 12 11 11 10 13 12 11 10 10 9 10 10 11 12 11 11 11 13 12 11 11 12 12 14
15 15 15 15 15 15 14 15 16 15 14 14 15 17 19 19 18 15 14 15 14 12 12 12 11 12 13 11 11 10 10 10 11 14 15 14 15 13 14 14 13 13 14 12 13
22 23 25 26 24 22 20 18 16 17 16 16 16 17 18 19 20 19 17 16 16 15 14 12 11 12 11 14 12 12 13 12 12 15 17 18 16 16 16 16 15 14 16 14 11
39 37 38 36 34 32 28 25 21 19 18 18 20 18 17 17 17 17 17 16 16 15 15 14 13 11 12 14 16 12 11 10 12 17 18 20 22 19 16 17 17 16 17 16 12
29 27 25 25 25 26 28 27 25 20 21 19 18 19 18 16 16 17 17 16 16 18 21 17 14 19 14 12 12 12 12 12 14 16 19 22 25 25 20 20 28 16 19 20 13
26 23 20 20 20 21 22 24 23 23 25 25 24 28 23 24 19 18 23 22 22 28 20 18 22 18 16 17 18 18 17 16 17 15 19 24 36 27 26 21 19 18 22 27 17
22 22 21 22 22 20 18 19 18 18 18 29 23 24 28 24 26 23 23 34 30 27 28 26 24 16 16 21 23 24 22 20 17 16 14 22 21 30 31 26 22 22 17 34 25
14 15 16 16 16 16 17 18 19 17 15 23 31 22 21 22 22 25 23 30 34 30 35 30 24 18 16 25 29 24 20 18 17 18 16 14 16 29 37 31 28 23 19 28 34
18 16 14 11 10 10 11 12 11 13 15 19 20 30 26 23 42 31 32 22 26 37 28 38 32 25 26 39 31 26 22 16 12 11 13 11 11 19 36 37 34 30 22 19 45
18 16 12 10 8 8 9 8 7 9 10 14 13 17 18 19 23 29 30 36 38 39 27 33 35 28 24 35 32 28 22 14 13 10 9 8 8 10 24 39 38 32 29 21 24
14 11 9 8 8 8 8 8 7 9 11 12 8 10 13 16 21 20 26 27 35 40 34 37 37 37 38 36 36 26 20 14 11 10 10 9 7 10 15 42 42 35 35 26 23
14 13 12 11 10 10 10 10 10 11 13 9 6 8 11 14 18 20 21 25 26 27 37 32 36 40 38 40 43 37 24 19 16 12 10 9 8 7 7 11 26 35 38 32 28
14 13 11 10 8 8 8 8 7 10 11 12 10 9 11 12 13 17 20 22 28 28 29 33 28 33 34 33 34 29 25 21 19 17 12 9 9 8 7 7 11 21 37 40 37
6 5 6 4 4 3 3 2 3 5 9 11 12 9 9 11 12 13 13 16 22 27 29 30 33 31 35 31 30 33 23 21 17 16 13 12 12 10 8 8 11 19 35 45 41
6 5 5 3 3 3 3 2 2 2 3 6 11 10 10 10 13 12 13 12 14 18 23 28 28 28 28 23 26 28 25 19 15 14 17 17 16 13 9 8 9 17 33 48 47
5 4 4 3 2 2 2 2 2 2 2 3 3 11 8 9 12 14 12 12 12 13 13 17 23 29 21 23 24 23 21 18 16 21 31 29 20 15 12 9 9 12 25 49 51
4 4 4 3 3 2 2 2 2 2 1 2 2 4 7 10 13 17 15 12 11 14 14 13 12 24 25 23 22 21 21 17 16 23 31 32 22 18 14 10 10 11 17 39 53
7 5 4 3 3 2 2 2 1 2 1 1 2 2 3 11 14 15 17 13 10 12 13 16 14 14 22 26 28 27 24 21 18 20 30 32 24 24 16 13 14 12 12 21 44
6 5 4 4 3 3 2 2 2 1 2 2 2 2 3 5 11 14 17 12 10 10 14 16 22 17 19 25 28 32 28 25 20 25 32 41 38 33 22 17 16 16 12 13 26
11 9 6 5 4 3 2 2 2 1 2 2 1 2 2 3 5 12 15 12 14 10 14 15 20 22 23 27 25 23 22 22 22 23 34 50 51 36 24 20 19 20 15 11 13
26 20 11 6 4 3 2 2 2 2 2 2 2 2 2 2 2 7 11 13 16 11 13 15 18 19 27 27 25 20 21 18 17 22 26 44 55 51 42 25 19 22 21 16 13

GFSSW_250_rhum_042.txt.gz
RH
47 43 33 24 20 18 19 18 15 14 14 12 11 11 12 14 12 7 6 9 10 10 12 15 17 17 19 24 24 22 22 42 89 94 100 100 73 83 99 99 44 21 73 55 16
55 53 42 29 21 19 20 20 17 14 13 13 11 11 11 12 14 13 8 6 7 9 10 14 19 18 19 22 21 22 21 25 96 85 73 98 88 100 100 68 16 41 76 25 26
58 54 52 40 24 22 21 21 20 16 12 12 12 11 10 10 12 14 12 10 7 7 9 10 14 20 18 19 18 33 22 41 82 100 100 100 70 94 91 17 20 62 29 54 34
56 54 50 42 29 23 22 22 21 20 17 13 11 11 11 10 11 11 14 13 11 9 7 7 9 11 14 17 14 15 16 21 32 47 63 42 38 29 20 13 11 27 26 8 12
41 40 36 34 31 24 23 22 22 22 20 17 11 10 10 10 11 10 11 12 13 12 12 8 8 8 8 8 9 9 10 12 12 12 13 11 13 11 10 11 12 41 12 9 10
32 30 29 27 26 25 23 22 22 23 22 21 16 11 10 8 11 10 10 11 12 12 13 13 9 9 10 10 7 8 7 7 7 7 7 10 8 8 15 10 12 22 38 10 10
29 29 30 28 26 24 22 22 22 22 21 20 19 14 11 8 11 10 11 11 10 11 12 12 12 12 10 11 9 9 10 9 8 8 11 10 10 12 9 8 13 21 44 12 8
20 20 20 20 20 22 22 20 20 20 20 20 19 16 12 10 12 10 10 12 11 10 11 12 12 12 13 10 10 10 11 10 9 9 9 10 10 9 9 10 13 23 63 62 10
18 17 16 16 16 14 14 14 14 15 17 17 18 17 14 12 11 13 12 12 11 11 10 10 12 13 12 12 11 13 12 11 10 9 9 9 12 11 11 12 10 56 89 94 39
36 32 29 26 22 18 16 16 14 13 11 11 14 15 15 12 11 11 11 9 12 10 10 12 13 13 14 16 15 11 12 10 9 10 10 10 11 12 10 12 10 71 54 100 93
39 34 30 28 25 24 22 20 19 18 12 11 13 14 15 12 12 11 12 11 10 11 12 12 12 15 19 16 13 10 10 11 11 11 12 11 12 19 12 11 12 36 46 87 100
24 26 26 23 21 20 17 16 16 18 24 18 15 18 16 14 14 13 12 13 12 11 12 10 15 21 15 15 15 14 12 13 12 13 13 14 12 14 13 12 13 13 65 87 98
16 15 15 14 14 15 16 15 14 14 15 14 18 26 27 17 28 26 16 15 14 13 10 12 26 11 11 12 15 17 16 15 14 11 14 12 12 13 13 11 11 11 17 95 90
23 21 20 19 15 13 10 10 10 10 14 13 12 12 20 21 21 22 22 18 18 16 13 11 16 12 12 13 16 18 20 17 14 12 12 12 11 12 15 13 14 12 15 74 88
26 24 23 21 19 17 15 10 8 7 9 9 10 12 13 14 16 21 18 16 15 19 16 17 18 16 17 20 19 20 18 18 16 13 12 11 11 14 15 16 18 16 16 15 81
27 27 25 22 21 17 13 12 11 10 9 8 8 8 10 10 14 19 15 16 22 22 19 18 17 15 17 18 17 19 17 17 15 12 11 12 13 13 18 21 20 18 16 16 15
28 25 23 21 18 14 12 13 12 9 10 10 12 13 9 7 9 12 17 18 18 16 20 24 19 16 17 16 16 17 16 15 13 12 12 17 15 20 20 22 20 20 17 16 17
30 27 22 16 12 9 7 6 6 5 7 7 9 10 11 10 8 8 11 13 15 15 16 20 25 25 19 17 17 19 18 18 21 21 24 24 15 24 21 20 21 20 14 15 16
28 17 10 8 6 6 5 4 3 3 3 3 3 6 8 10 10 9 8 11 11 13 13 15 20 24 23 28 24 24 19 28 26 22 25 18 22 19 14 14 16 19 13 13 18
16 10 10 6 5 5 5 4 3 3 2 2 2 2 6 8 10 10 10 8 10 10 11 13 17 25 26 26 24 26 29 26 26 23 20 23 28 24 15 14 20 16 10 13 15
12 10 8 7 7 6 6 4 4 3 2 2 2 2 2 5 8 10 10 9 8 10 11 12 16 28 30 24 28 23 21 20 23 25 26 29 29 22 14 16 19 11 10 10 9
13 9 12 11 9 6 4 4 4 3 3 2 2 2 2 3 5 10 10 9 8 9 11 12 14 20 26 38 30 25 27 24 22 27 30 30 26 21 16 27 16 13 10 10 10
16 13 15 15 19 13 6 4 3 3 3 2 2 2 2 2 3 4 9 9 8 8 10 13 12 18 21 28 28 26 26 27 28 25 25 35 33 26 21 27 19 19 18 10 10
14 21 20 31 32 31 17 6 3 3 2 2 2 2 2 2 2 2 6 8 8 7 9 10 11 16 17 21 24 27 25 29 30 26 32 32 34 24 32 37 24 21 19 12 9
19 22 47 54 44 26 18 9 4 2 2 2 2 2 2 1 2 2 3 8 10 7 6 9 12 14 16 17 18 26 27 22 25 41 35 43 37 38 40 34 24 22 17 13 10
27 30 52 56 56 46 27 11 6 2 2 2 2 2 2 2 2 2 2 5 10 8 7 10 11 15 18 20 19 22 25 30 25 44 44 41 38 37 32 28 25 22 16 12 12
34 62 73 71 66 56 43 15 6 4 2 2 2 2 1 2 2 2 2 3 7 8 8 10 14 17 19 17 18 25 28 33 36 45 44 40 37 34 32 28 28 24 15 11 12

GFSSW_250_rhum_045.txt.gz
RH
44 50 50 49 46 40 31 23 19 19 18 15 13 12 12 13 10 6 7 10 13 13 13 15 16 16 18 23 22 20 26 90 44 81 74 66 100 79 99 100 100 100 95 22 17
51 56 55 50 48 47 42 28 20 19 20 17 14 13 12 12 13 13 7 7 10 12 12 13 14 16 17 16 20 23 24 33 93 99 99 94 96 97 92 100 94 100 87 20 18
51 55 54 48 55 56 53 41 27 20 20 20 15 13 12 11 12 14 13 9 7 10 12 12 13 15 16 17 16 21 24 24 23 34 98 93 99 98 100 99 78 88 53 10 12
50 51 50 52 62 59 55 52 43 25 22 21 20 14 12 11 12 12 13 13 10 7 8 10 10 11 15 19 19 20 21 22 22 26 33 92 100 98 100 93 94 28 11 15 13
36 36 39 42 42 43 49 50 47 35 24 23 22 19 13 10 12 11 12 13 13 12 7 7 8 9 11 16 19 18 21 21 19 18 22 34 72 95 82 54 13 11 9 12 16
38 38 38 37 33 33 38 41 37 37 32 25 23 21 18 11 12 10 10 11 12 14 14 9 6 7 9 10 12 17 19 19 18 14 14 14 16 12 12 10 10 9 8 17 41
30 32 32 31 28 27 27 28 29 30 28 28 25 24 20 17 16 9 9 10 11 12 13 12 11 10 8 7 8 8 9 9 8 8 7 7 7 8 10 11 10 8 9 23 89
19 21 23 23 23 22 21 20 22 26 26 25 25 25 23 20 18 11 9 9 10 10 11 12 14 12 12 10 10 12 12 9 10 10 9 8 9 9 10 8 9 9 11 28 74
24 22 18 16 15 14 13 13 14 15 14 21 26 25 23 21 21 18 13 9 9 9 10 11 12 13 12 13 12 14 14 10 10 10 9 9 10 10 8 9 10 9 12 47 61
24 24 24 25 25 23 20 17 15 12 10 11 14 22 24 23 21 21 16 11 9 8 9 10 11 12 12 16 16 12 13 11 11 10 10 10 9 9 9 9 11 11 12 30 60
20 21 20 21 19 17 15 15 18 20 13 14 14 14 14 16 18 18 18 11 10 9 10 10 10 12 12 12 12 11 11 12 8 10 13 11 11 10 10 10 10 10 10 12 34
16 14 13 13 14 15 16 17 15 17 12 14 19 20 16 17 14 12 14 12 9 10 9 8 12 14 10 10 11 13 12 13 10 11 12 14 13 15 10 10 10 11 11 12 50
22 20 17 15 15 15 14 12 12 14 18 13 10 16 22 22 20 12 13 10 11 10 9 9 14 10 10 10 10 10 14 14 13 10 12 12 13 14 12 10 10 9 10 13 13
29 29 30 26 22 18 15 13 13 12 11 11 14 10 12 20 20 19 19 14 11 10 10 9 13 10 10 10 11 11 17 14 10 8 11 12 12 12 12 10 9 10 11 14 16
34 30 30 30 28 27 23 18 15 13 11 10 9 9 11 11 12 19 16 20 18 13 10 8 13 12 11 13 14 21 16 13 10 8 9 10 11 12 13 14 11 11 12 12 18
38 33 30 26 21 22 21 18 16 14 11 9 11 10 10 9 10 14 15 13 20 21 16 16 12 10 11 12 12 18 13 13 10 7 7 11 12 13 15 28 12 13 12 11 14
39 32 28 28 26 22 18 16 15 12 10 8 9 10 12 10 8 9 11 14 13 18 23 26 20 13 13 10 10 11 10 10 9 6 11 12 14 16 25 27 20 15 14 12 14
33 30 31 30 22 13 9 7 6 6 6 6 7 8 10 12 8 8 9 9 12 13 15 23 26 23 17 16 13 13 13 13 15 14 16 16 14 18 22 19 20 14 12 14 17
30 37 35 22 11 9 7 6 5 5 4 4 3 3 6 9 10 8 6 6 8 12 13 14 25 26 21 23 23 20 13 14 15 16 16 16 14 22 15 16 16 15 11 14 19
38 42 26 13 10 8 7 6 6 6 4 4 3 2 3 4 8 9 9 5 5 8 10 10 20 24 26 23 20 22 27 21 16 16 14 17 15 23 15 16 15 16 16 15 17
49 32 17 12 10 10 10 9 8 8 5 4 3 2 2 2 4 8 9 8 5 5 8 10 14 21 24 22 26 23 19 21 19 18 17 18 17 25 19 18 16 15 19 16 16
36 19 15 12 12 16 14 14 11 10 5 3 3 2 2 2 2 3 7 8 7 6 6 8 11 15 22 25 29 23 20 23 24 22 20 18 18 34 22 15 17 17 21 20 21
23 16 17 19 19 18 15 15 13 10 6 4 3 2 2 2 2 2 3 6 7 8 8 8 8 13 20 25 25 22 23 28 26 27 29 31 46 26 23 20 19 21 23 25 18
21 19 24 29 34 52 40 30 18 12 5 4 3 2 2 2 2 2 2 3 5 7 9 10 9 12 14 19 19 18 24 27 27 28 28 30 36 29 34 27 22 18 19 27 16
22 27 41 46 48 52 46 32 22 9 4 4 2 2 2 2 2 2 2 2 3 5 8 9 11 12 12 14 18 20 23 29 26 36 33 46 31 31 31 29 22 21 21 32 19
29 43 45 67 59 44 48 46 36 16 5 2 2 2 2 2 2 2 1 1 2 4 6 9 12 14 13 14 18 20 26 26 28 34 45 60 43 35 28 27 25 22 24 39 27
52 56 61 75 62 62 63 60 34 17 5 3 2 2 2 2 2 2 2 1 2 3 6 8 12 16 19 16 18 21 18 21 29 35 43 64 58 46 38 28 25 29 27 39 35

GFSSW_250_rhum_048.txt.gz
RH
36 34 32 34 38 41 48 48 44 36 26 23 16 12 13 13 10 7 9 12 15 16 16 18 16 21 26 35 37 24 25 27 34 59 66 38 95 100 100 100 95 77 73 90 96
25 28 30 35 39 40 44 48 47 44 39 26 22 15 12 13 13 13 7 7 11 14 15 16 16 17 19 25 28 20 22 28 50 52 70 51 44 80 99 100 90 84 99 99 100
36 36 40 48 48 44 47 50 43 49 49 40 27 20 13 12 14 13 12 8 7 9 13 15 16 16 16 16 17 20 22 22 54 89 96 78 41 62 58 73 100 100 100 82 30
48 48 52 54 50 44 47 50 50 49 54 50 43 28 19 14 14 13 13 12 10 7 8 13 14 14 14 15 17 18 21 25 24 54 72 60 60 67 96 100 88 100 97 73 13
31 35 39 36 36 41 42 44 40 42 53 53 52 47 26 19 19 12 12 12 12 11 9 8 12 13 12 13 15 16 17 20 19 23 25 25 26 42 79 75 64 52 50 14 8
24 26 28 30 33 33 33 34 36 41 37 40 51 44 36 25 21 14 13 12 12 12 12 10 7 9 11 12 12 13 16 21 22 21 22 25 22 25 26 20 22 17 8 8 11
23 22 23 25 24 26 28 30 28 30 33 36 39 35 28 38 24 19 16 13 12 12 12 13 14 10 7 10 9 10 11 16 21 20 16 20 19 17 13 11 12 8 8 9 14
16 16 16 16 15 15 15 17 22 24 24 26 28 30 29 27 26 22 19 15 12 11 11 12 12 15 13 10 9 10 9 10 11 15 17 18 16 13 9 7 8 8 10 9 12
27 25 24 21 18 16 14 14 13 13 15 20 23 21 23 24 26 22 21 17 14 12 11 11 12 13 15 16 14 17 11 8 8 8 8 9 8 7 8 8 8 9 12 9 28
20 19 19 20 19 20 21 21 20 17 14 13 14 17 17 17 19 22 18 18 16 14 11 11 11 12 13 19 19 16 10 9 9 8 7 8 8 8 8 8 9 10 9 10 15
15 14 14 14 14 14 16 15 14 17 18 21 20 17 12 13 13 15 19 16 18 15 18 12 10 13 15 13 12 13 13 11 9 10 9 8 8 8 8 9 9 9 9 10 13
18 18 17 17 18 16 15 12 11 13 11 13 14 21 23 19 13 11 12 11 13 16 15 14 15 14 12 13 13 14 14 13 12 12 10 9 9 9 9 9 10 10 10 10 12
22 20 18 18 18 18 17 18 16 13 11 9 10 12 17 18 18 17 13 10 10 12 14 15 23 14 10 11 13 13 16 16 12 12 12 11 10 11 10 11 11 9 10 10 12
25 23 21 20 21 20 20 20 18 15 15 13 11 9 9 12 16 12 17 15 10 10 11 13 23 16 8 10 12 12 17 15 10 10 13 12 12 12 11 10 11 11 11 11 15
23 23 26 26 26 24 23 22 19 16 18 15 13 11 12 8 9 12 9 14 13 12 9 10 17 17 10 12 11 15 15 12 10 9 10 12 13 13 13 12 10 10 10 10 13
34 30 27 27 26 28 26 22 20 19 18 16 13 12 11 11 9 8 8 10 10 12 11 11 13 14 14 12 9 14 12 11 9 8 8 12 15 14 15 15 10 11 11 11 11
32 29 32 31 29 27 22 19 15 14 12 10 10 10 11 10 11 10 8 7 11 8 12 14 18 11 13 14 11 10 11 10 9 7 11 12 14 21 24 18 14 12 11 11 11
31 36 42 36 30 24 21 17 17 16 12 10 10 10 9 9 9 10 12 7 7 10 8 11 19 14 11 13 12 11 11 10 10 9 13 13 11 28 34 25 14 12 11 11 12
35 39 38 35 27 24 22 18 11 8 7 6 5 5 5 6 9 9 10 9 7 7 9 8 17 18 16 14 11 11 9 10 10 11 14 13 12 23 34 19 14 13 13 12 12
40 43 33 33 36 28 17 10 9 8 7 6 5 4 4 5 5 7 8 9 7 7 7 10 12 18 19 19 14 10 13 10 9 10 11 11 14 20 33 20 16 16 15 13 12
50 37 37 43 28 15 12 10 10 11 11 10 7 5 5 4 4 4 5 8 8 6 8 8 10 15 16 18 24 16 10 10 9 10 12 13 14 23 33 23 19 19 17 14 13
40 48 44 28 15 15 16 21 21 19 18 15 11 7 4 4 3 3 3 4 7 7 6 8 7 12 14 18 26 22 15 14 12 11 11 12 17 23 30 22 21 20 17 15 14
53 41 25 17 17 23 29 33 37 40 28 22 14 10 5 3 3 2 2 2 3 6 5 6 8 10 14 17 19 21 18 15 14 12 12 15 36 26 43 30 28 23 18 18 16
40 23 20 22 38 56 61 56 51 48 41 26 12 8 5 3 2 2 2 2 2 3 5 6 9 9 11 13 15 14 18 18 17 15 18 20 62 40 33 31 23 20 17 18 21
21 21 27 49 70 78 72 64 58 51 30 16 8 5 3 2 2 2 2 2 2 2 3 6 9 10 12 10 12 14 18 22 23 22 20 27 72 50 43 29 22 23 22 20 18
22 30 54 75 74 70 76 62 65 56 34 9 6 3 2 2 2 2 2 2 2 1 2 4 8 10 12 10 11 14 17 18 26 26 22 30 93 35 34 34 30 24 24 26 26
36 59 69 74 70 84 87 72 65 60 29 9 4 3 2 2 1 1 2 2 2 1 2 2 8 11 13 10 12 13 14 16 20 25 24 39 96 42 47 39 27 25 32 42 34